Location: Grandview
(34.8900°N, 117.1058°W)
Time: 18:21:16
(UTC-07:00)

OTV 5 (USA 277) - Pass Details

Date: 08 October 2017
Orbit: 404 x 417 km, 43.0° (Epoch: 07 September)

Event Time Altitude Azimuth Distance (km) Brightness Sun altitude
Rises 19:53:11 0° 241° (WSW) 2,342 ? -19.5°
Reaches altitude 10° 19:55:17 10° 241° (WSW) 1,482 ? -19.9°
Enters shadow 19:58:29 81° 246° (WSW) 423 ? -20.5°
